Location: Cadenet
(43.7345°N, 5.3750°E)
Time: 15:46:41
(UTC+00:00)

Cosmos 2173 Rocket - Pass Details

Date: 18 February 2020
Orbit: 944 x 1002 km, 83.0° (Epoch: 07 April)

Event Time Altitude Azimuth Distance (km) Brightness Sun altitude
Rises 05:06:03 0° 351° (N) 3,715 6.9 -16.5°
Reaches altitude 10° 05:08:36 10° 351° (N) 2,755 6.3 -16.0°
Maximum altitude 05:14:56 83° 265° (W) 989 3.9 -14.9°
Drops below altitude 10° 05:21:07 10° 177° (S) 2,696 6.4 -13.8°
Sets 05:23:35 0° 177° (S) 3,631 7.1 -13.3°
